TimeEST,TemperatureF,Dew PointF,Humidity,Sea Level PressureIn,VisibilityMPH,Wind Direction,Wind SpeedMPH,Gust SpeedMPH,PrecipitationIn,Events,Conditions,WindDirDegrees,DateUTC
12:51 AM,36.0,25.0,64,30.25,10.0,SE,6.9,-,N/A,,Clear,140,2013-02-07 05:51:00
1:51 AM,37.0,23.0,57,30.22,10.0,SE,8.1,-,N/A,,Clear,140,2013-02-07 06:51:00
2:51 AM,37.0,23.0,57,30.21,10.0,SSE,11.5,-,N/A,,Clear,150,2013-02-07 07:51:00
3:51 AM,37.0,21.9,54,30.19,10.0,SSE,12.7,-,N/A,,Clear,150,2013-02-07 08:51:00
4:51 AM,37.0,21.9,54,30.22,10.0,SSE,12.7,25.3,N/A,,Clear,150,2013-02-07 09:51:00
5:51 AM,36.0,23.0,59,30.24,10.0,SE,12.7,23.0,N/A,,Partly Cloudy,140,2013-02-07 10:51:00
6:51 AM,35.1,24.1,64,30.26,10.0,SSE,13.8,21.9,N/A,,Scattered Clouds,150,2013-02-07 11:51:00
7:51 AM,34.0,25.0,70,30.27,10.0,SE,8.1,-,N/A,,Mostly Cloudy,140,2013-02-07 12:51:00
8:51 AM,34.0,26.1,73,30.27,10.0,Variable,5.8,-,N/A,,Overcast,0,2013-02-07 13:51:00
9:51 AM,36.0,27.0,70,30.26,10.0,SE,10.4,18.4,N/A,,Partly Cloudy,130,2013-02-07 14:51:00
10:51 AM,37.0,28.0,70,30.25,10.0,Variable,5.8,17.3,N/A,,Clear,0,2013-02-07 15:51:00
11:51 AM,39.0,28.9,67,30.22,10.0,SE,9.2,18.4,N/A,,Clear,130,2013-02-07 16:51:00
12:51 PM,39.9,30.0,68,30.18,10.0,SE,12.7,18.4,N/A,,Clear,140,2013-02-07 17:51:00
1:51 PM,41.0,30.9,67,30.15,10.0,ESE,6.9,-,N/A,,Clear,120,2013-02-07 18:51:00
2:51 PM,42.1,30.9,65,30.12,10.0,ESE,10.4,17.3,N/A,,Clear,120,2013-02-07 19:51:00
3:51 PM,42.1,30.9,65,30.11,10.0,SSE,9.2,19.6,N/A,,Clear,150,2013-02-07 20:51:00
4:51 PM,39.9,30.9,70,30.12,10.0,SSE,11.5,23.0,N/A,,Clear,150,2013-02-07 21:51:00
5:51 PM,39.0,30.9,73,30.10,10.0,SE,10.4,18.4,N/A,,Clear,140,2013-02-07 22:51:00
6:51 PM,39.0,32.0,76,30.10,10.0,SSE,12.7,23.0,N/A,,Clear,150,2013-02-07 23:51:00
7:51 PM,37.9,33.1,83,30.10,10.0,SE,12.7,20.7,N/A,,Partly Cloudy,140,2013-02-08 00:51:00
8:51 PM,37.9,33.1,83,30.08,10.0,SSE,10.4,18.4,N/A,,Overcast,150,2013-02-08 01:51:00
9:51 PM,39.0,33.1,79,30.06,10.0,SE,11.5,19.6,N/A,,Overcast,140,2013-02-08 02:51:00
10:51 PM,37.0,33.1,86,30.04,10.0,SE,11.5,21.9,N/A,,Overcast,140,2013-02-08 03:51:00
11:00 PM,37.4,33.8,87,29.99,10.0,SSE,9.2,18.4,N/A,,Overcast,150,2013-02-08 04:00:00
11:48 PM,35.6,32.0,87,29.97,10.0,SE,10.4,-,N/A,,Overcast,130,2013-02-08 04:48:00
11:51 PM,36.0,32.0,86,30.01,10.0,ESE,10.4,-,N/A,,Overcast,120,2013-02-08 04:51:00